Probability
0 0 0 0 0 0 0 0 0 0 0 0 0 0 0 0 0 0 0 0 0 0 0 0 0 0 0 13 26 13 0 1 1 1 1 0 0 0
0 0 0 0 0 0 0 0 0 0 0 0 0 0 0 0 0 0 0 0 0 0 0 0 0 0 0 6 10 6 0 1 5 8 6 1 0 0
0 0 0 0 0 0 0 0 0 0 0 0 0 0 0 0 0 0 0 0 0 0 0 0 0 0 0 0 0 0 0 2 9 15 10 2 0 0
0 0 0 0 0 0 0 0 0 0 0 0 0 0 0 0 0 0 0 0 0 0 0 0 0 0 0 0 0 0 0 1 6 9 6 1 0 0
0 0 0 0 0 0 0 0 0 0 0 0 0 0 0 0 0 0 0 0 0 0 0 0 0 0 0 0 0 0 0 0 1 1 1 0 0 0
0 0 0 0 0 0 0 0 0 0 0 0 0 0 0 0 0 0 0 0 0 0 0 0 0 0 0 0 0 0 0 0 0 0 0 0 0 0
0 0 0 0 0 0 0 0 0 0 0 0 0 0 0 0 0 0 0 0 0 0 0 0 0 0 0 0 0 0 0 0 0 0 0 0 0 0
0 0 0 0 0 0 0 0 0 0 0 0 0 0 0 0 0 0 0 0 0 0 0 0 0 0 0 0 0 0 0 0 0 0 0 0 0 0
0 0 0 0 0 0 0 0 0 0 0 0 0 0 0 0 0 0 0 0 0 0 0 0 0 0 0 0 0 0 0 0 0 0 0 0 0 0
0 0 0 0 0 0 0 0 0 0 0 0 0 0 0 0 0 0 0 0 0 0 0 0 0 0 0 0 0 0 0 0 0 0 0 0 0 0
0 0 0 0 0 0 0 0 0 0 0 0 0 0 0 0 0 0 0 0 0 0 0 0 0 0 0 0 0 0 0 0 0 0 0 0 0 0
0 0 0 0 0 0 0 0 0 0 0 0 0 0 0 0 0 0 0 0 0 0 0 0 0 0 0 0 0 0 0 0 0 0 0 0 0 0
0 0 0 0 0 0 0 0 0 0 0 0 0 0 0 0 0 0 0 0 0 0 0 0 0 0 0 0 0 0 0 0 0 0 0 0 0 0
0 0 0 0 0 0 0 0 0 0 0 0 0 0 0 0 0 0 0 0 0 0 0 0 0 0 0 0 0 0 0 0 0 0 0 0 0 0
0 0 0 0 0 0 0 0 0 0 0 0 0 0 0 0 0 0 0 0 0 0 0 0 0 0 0 0 0 0 0 0 0 0 0 0 0 0
0 0 0 0 0 0 0 0 0 0 0 0 0 0 0 0 0 0 0 0 0 0 0 0 0 0 0 0 0 0 0 0 0 0 0 0 0 0
0 0 0 0 0 0 0 0 0 0 0 0 0 0 0 0 0 0 0 0 0 0 0 0 0 0 0 0 0 0 0 0 0 0 0 0 0 0
0 0 0 0 0 0 0 0 0 0 0 0 0 0 0 0 0 0 0 0 0 0 0 0 0 0 0 0 0 0 0 0 0 0 0 0 0 0
0 0 0 0 0 0 0 0 0 0 0 0 0 0 0 0 0 0 0 0 0 0 0 0 0 0 0 0 0 0 0 0 0 0 0 0 0 0
0 0 0 0 0 0 0 0 0 0 0 0 0 0 0 0 0 0 0 0 0 0 0 0 0 0 0 0 0 0 0 0 0 0 0 0 0 0
0 0 0 0 0 0 0 0 0 0 0 0 0 0 0 0 0 0 0 0 0 0 0 0 0 0 0 0 0 0 0 0 0 0 0 0 0 0
0 0 0 0 0 0 0 0 0 0 0 0 0 0 0 0 0 0 0 0 0 0 0 0 0 0 0 0 0 0 0 0 0 0 0 0 0 0
0 0 0 0 0 0 0 0 0 0 0 0 0 0 0 0 0 0 0 0 0 0 0 0 0 0 0 0 0 0 0 0 0 0 0 0 0 0
Wind_Speed
16 17 15 12 13 13 12 13 16 19 21 19 18 18 17 16 16 15 16 20 21 20 22 26 29 31 34 40 37 34 36 38 38 39 39 37 34 34
14 17 17 14 14 13 13 13 16 18 21 17 16 20 20 17 16 14 16 14 13 20 20 26 30 33 35 35 34 37 37 38 37 36 37 36 35 34
18 19 21 20 16 13 13 15 15 14 19 19 17 19 23 23 17 13 12 12 10 17 18 26 30 31 35 34 34 39 40 37 35 34 35 35 35 33
20 21 21 19 20 17 15 16 16 16 18 19 18 19 23 23 19 15 13 10 11 12 17 26 34 32 35 34 33 35 36 33 34 33 33 34 34 33
20 21 20 21 20 17 18 16 15 14 16 18 20 19 18 21 18 17 13 11 10 11 15 16 28 34 36 36 33 33 32 31 31 30 29 29 29 31
21 21 21 21 21 20 18 18 16 17 17 18 18 18 19 21 13 9 8 9 9 10 11 12 22 33 37 38 35 33 33 33 30 26 25 27 27 28
21 21 21 23 28 28 22 18 17 16 16 17 16 17 16 16 10 6 6 8 11 10 7 11 17 23 29 32 30 32 34 35 35 34 28 26 26 26
20 20 21 22 25 33 36 34 30 25 21 19 17 18 16 15 9 7 7 7 10 5 3 14 20 22 23 24 33 36 36 36 34 35 34 29 27 26
20 19 17 18 22 22 28 33 32 35 35 28 23 24 19 16 11 6 4 5 7 7 6 11 14 19 22 24 39 38 37 37 39 36 34 32 28 24
19 20 20 21 22 24 22 22 23 25 27 24 23 23 22 18 16 8 3 6 11 8 5 7 13 16 19 24 40 42 37 35 35 36 34 32 30 25
19 19 21 22 27 33 26 23 23 20 25 34 34 34 36 32 21 8 5 7 11 9 2 6 15 18 18 19 26 38 38 36 34 31 29 28 29 26
18 18 23 26 32 34 27 23 21 20 18 18 22 27 28 27 30 18 8 8 10 10 6 11 16 19 19 18 20 21 23 28 29 28 27 28 29 21
16 16 17 30 36 37 33 23 24 23 18 16 15 15 15 13 13 11 10 10 11 12 14 13 7 17 17 19 17 17 17 18 16 18 23 28 32 27
17 16 19 34 38 37 30 30 34 28 15 13 14 14 14 13 12 12 13 12 14 16 19 16 14 16 17 23 19 17 16 15 16 15 16 25 32 32
18 25 30 35 31 24 26 28 23 16 14 14 15 15 14 13 12 12 14 15 17 17 19 21 18 17 17 21 20 21 22 18 15 16 17 20 23 24
17 19 25 25 23 18 16 16 12 10 12 13 12 13 15 13 13 15 14 13 12 14 17 20 19 20 19 22 21 20 20 18 17 15 17 19 22 21
18 12 14 15 14 13 13 13 12 13 13 12 13 12 13 12 12 12 11 10 12 15 14 13 17 18 18 22 23 22 20 16 17 18 20 18 19 19
14 12 13 15 15 15 14 14 14 13 13 14 11 13 13 13 12 12 11 11 12 15 14 13 14 12 9 6 11 21 19 16 16 18 20 19 17 18
11 12 13 14 15 14 14 13 14 13 14 12 12 12 10 10 12 11 10 11 15 16 14 14 15 14 17 16 8 16 20 18 17 17 18 19 19 16
11 12 13 14 15 14 14 13 13 13 12 12 12 12 10 10 10 10 11 14 13 13 14 15 17 18 20 19 15 17 20 19 23 22 19 14 13 14
12 12 13 14 15 15 15 14 15 14 14 12 12 12 10 10 11 12 13 13 14 14 14 16 20 21 13 11 12 14 16 18 19 21 21 18 16 14
12 13 13 14 15 15 15 15 15 14 13 12 12 11 11 12 14 12 9 10 12 14 15 15 15 15 13 16 15 19 17 15 15 15 16 16 19 20
12 13 13 14 15 15 15 16 16 14 14 13 13 12 12 12 11 6 6 9 10 12 15 14 12 12 12 16 17 16 19 17 16 16 15 10 11 14
Wind_Direction
272 270 269 268 263 262 263 262 267 274 275 276 276 274 259 257 263 261 260 251 240 242 250 223 209 205 192 186 187 178 181 172 176 179 178 185 186 184
271 272 269 267 263 258 257 261 258 260 272 275 274 275 276 266 264 265 261 259 246 245 260 226 204 194 189 182 178 173 176 171 176 178 175 180 184 184
272 272 270 268 266 262 260 259 259 264 273 274 276 281 279 280 262 253 257 257 259 249 250 219 190 185 184 186 186 176 168 165 171 176 174 177 180 181
280 278 275 274 270 266 264 262 262 262 269 277 277 274 271 272 267 263 256 246 245 246 246 229 187 180 172 169 167 159 155 162 169 172 173 174 176 178
280 277 274 272 269 266 263 262 264 267 270 274 269 271 278 271 259 256 251 258 254 256 241 233 191 179 175 175 171 160 153 159 163 164 165 166 172 178
277 272 268 265 264 264 262 259 258 257 259 266 265 266 272 272 261 253 263 264 258 256 246 235 207 181 180 177 172 166 158 156 157 155 157 160 167 173
279 274 268 265 264 262 260 257 255 257 258 261 259 256 261 268 254 242 276 298 297 273 250 257 212 185 182 176 169 164 161 160 159 151 154 159 163 168
285 279 275 270 265 265 263 260 255 254 255 260 266 269 268 272 267 268 283 294 295 274 266 259 206 186 181 175 172 167 165 161 159 153 155 158 161 165
290 286 279 271 269 266 266 264 263 262 259 259 258 260 266 273 278 259 277 294 278 297 309 274 208 179 174 170 167 164 161 160 154 154 155 157 161 160
288 286 281 279 273 272 270 263 255 252 255 258 259 261 261 262 273 265 238 277 282 270 227 246 237 178 174 168 164 157 154 154 155 154 157 157 158 157
291 285 279 275 275 277 274 270 264 252 249 254 255 255 259 251 247 234 225 259 281 299 205 218 252 173 157 152 154 154 154 154 154 156 155 156 157 155
290 284 281 280 278 277 275 274 271 268 253 251 255 255 257 249 245 244 227 250 276 289 267 248 225 162 147 151 148 149 151 156 158 155 155 157 158 160
305 303 297 294 290 284 278 273 270 272 253 250 253 247 249 242 235 227 222 228 246 258 272 284 241 166 140 149 157 163 167 168 163 161 162 163 166 169
308 304 305 306 299 286 277 272 272 272 256 232 243 247 235 230 228 225 226 224 231 248 267 253 243 185 149 157 164 172 179 183 179 174 173 171 172 172
311 319 319 317 309 295 289 283 277 270 261 236 227 241 242 233 234 235 234 227 234 244 252 243 239 191 170 170 172 173 176 182 182 170 170 172 174 169
324 323 317 325 330 326 313 308 295 281 264 254 238 235 240 233 225 224 225 223 243 262 238 225 234 200 176 175 170 172 175 175 177 172 173 174 175 172
332 326 323 326 329 329 327 324 323 318 301 257 242 243 242 236 232 230 226 224 235 251 228 215 220 207 180 168 168 172 172 171 174 169 166 171 171 169
333 330 333 328 329 329 330 327 323 319 315 315 282 243 230 226 227 220 218 231 245 240 216 198 187 177 158 143 163 166 169 163 165 167 165 167 171 171
336 336 330 328 324 327 327 325 317 314 310 302 294 286 263 236 232 235 234 238 240 216 195 182 173 164 157 155 161 169 162 159 159 164 168 171 172 170
335 335 328 325 325 323 325 323 316 313 313 306 296 288 282 273 248 236 238 237 214 189 177 173 171 170 169 163 159 169 170 167 167 169 168 167 154 141
329 332 328 325 326 323 325 326 322 317 317 309 297 287 279 275 260 240 233 218 193 177 171 175 176 170 158 139 140 160 168 170 178 174 168 162 155 158
326 328 327 326 328 326 328 326 322 319 319 310 302 301 299 283 258 227 213 186 181 174 172 168 161 164 167 166 167 167 165 158 163 171 180 174 168 175
324 325 325 325 327 328 332 329 324 327 330 325 317 307 297 288 276 206 177 171 173 172 166 161 157 160 171 169 164 166 164 157 162 171 182 166 121 126